This is the latest recevied weather packets stored in our database for station/object N1ICS-1. If no packets are shown the sender has not sent any weather packets the latest 10 day(s).
| Time | Temp. | Humidity | Pressure | Rain* | Wind** | Luminosity | Snow |
|---|---|---|---|---|---|---|---|
| 1778041502 | 6.11° C | 99% | 1011.5 hPa | 2.79 mm | - | 0 W/m² | - |
| 1778041202 | 6.11° C | 99% | 1011.4 hPa | 2.79 mm | - | 0 W/m² | - |
| 1778040902 | 6.67° C | 99% | 1011.3 hPa | 2.29 mm | - | 0 W/m² | - |
| 1778040602 | 6.67° C | 99% | 1011.3 hPa | 2.29 mm | - | 0 W/m² | - |
| 1778040302 | 6.67° C | 99% | 1011 hPa | 2.29 mm | - | 0 W/m² | - |
| 1778040003 | 6.67° C | 99% | 1011.1 hPa | 1.78 mm | - | 0 W/m² | - |
| 1778039701 | 6.67° C | 99% | 1011 hPa | 1.78 mm | - | 0 W/m² | - |
| 1778039402 | 6.67° C | 99% | 1011.1 hPa | 1.78 mm | - | 0 W/m² | - |
| 1778039102 | 6.67° C | 99% | 1011.3 hPa | 1.78 mm | - | 0 W/m² | - |
| 1778038802 | 6.67° C | 98% | 1011.1 hPa | 2.29 mm | - | 0 W/m² | - |
| 1778038502 | 6.67° C | 98% | 1011.1 hPa | 2.29 mm | - | 0 W/m² | - |
| 1778038202 | 6.67° C | 97% | 1011.1 hPa | 2.79 mm | - | 0 W/m² | - |
| 1778037901 | 6.67° C | 97% | 1011.3 hPa | 2.79 mm | - | 0 W/m² | - |
| 1778037602 | 6.67° C | 97% | 1011.5 hPa | 1.78 mm | - | 0 W/m² | - |
| 1778037303 | 6.67° C | 96% | 1011.4 hPa | 1.02 mm | - | 0 W/m² | - |
| 1778037003 | 7.22° C | 98% | 1011.6 hPa | 1.02 mm | - | 0 W/m² | - |
| 1778036702 | 7.22° C | 98% | 1011.5 hPa | 1.78 mm | - | 0 W/m² | - |
| 1778036402 | 7.22° C | 98% | 1011.4 hPa | 2.29 mm | - | 0 W/m² | - |
| 1778036102 | 7.78° C | 98% | 1011.3 hPa | 2.79 mm | - | 0 W/m² | - |
| 1778035802 | 7.78° C | 98% | 1011 hPa | 4.06 mm | - | 0 W/m² | - |
| 1778035502 | 7.78° C | 98% | 1011.1 hPa | 3.56 mm | - | 0 W/m² | - |
| 1778035202 | 7.78° C | 97% | 1011.2 hPa | 1.02 mm | - | 0 W/m² | - |
| 1778034902 | 7.78° C | 96% | 1011.3 hPa | 1.78 mm | - | 0 W/m² | - |
| 1778034601 | 7.78° C | 96% | 1011.3 hPa | 1.78 mm | - | 0 W/m² | - |
| 1778034302 | 7.78° C | 97% | 1011.3 hPa | 1.02 mm | - | 0 W/m² | - |
* Rain latest hour (hover to see other rain measurements)
** Current wind speed in m/s (hover to see current wind gust speed)